• In Österreich
  • Länderverzeichnis
  • Für 7 Tage
  • Wassertemperatur
  • Satellitenkarten
  • Wetterkarte
  • News
  • Widgets
  • user-avatar
    Anmelden

    Stündliche Wetter Chipata

    Heute, 17 August, Freitag

    Zeit Temperatur Niederschläge Wind Luftdruck Luftfeuchtigkeit
    00:00 +20°C° 0 mm 2 m/S 681 mmHg 52%
    01:00 +19°C° 0 mm 2 m/S 680 mmHg 54%
    02:00 +18°C° 0 mm 2 m/S 680 mmHg 57%
    03:00 +18°C° 0 mm 2 m/S 680 mmHg 58%
    04:00 +19°C° 0 mm 1 m/S 680 mmHg 60%
    05:00 +18°C° 0 mm 1 m/S 680 mmHg 62%
    06:00 +19°C° 0 mm 2 m/S 680 mmHg 56%
    07:00 +21°C° 0 mm 2 m/S 681 mmHg 49%
    08:00 +23°C° 0 mm 2 m/S 682 mmHg 43%
    09:00 +26°C° 0 mm 2 m/S 682 mmHg 36%
    10:00 +28°C° 0 mm 2 m/S 682 mmHg 29%
    11:00 +31°C° 0 mm 2 m/S 683 mmHg 22%
    12:00 +32°C° 0 mm 2 m/S 682 mmHg 20%
    13:00 +32°C° 0 mm 2 m/S 681 mmHg 18%
    14:00 +34°C° 0 mm 2 m/S 681 mmHg 16%
    15:00 +33°C° 0 mm 3 m/S 680 mmHg 17%
    16:00 +31°C° 0 mm 3 m/S 680 mmHg 19%
    17:00 +31°C° 0 mm 3 m/S 680 mmHg 20%
    18:00 +29°C° 0 mm 3 m/S 680 mmHg 24%
    19:00 +27°C° 0 mm 4 m/S 680 mmHg 28%
    20:00 +25°C° 0 mm 4 m/S 680 mmHg 32%
    21:00 +24°C° 0 mm 3 m/S 680 mmHg 35%
    22:00 +22°C° 0 mm 3 m/S 680 mmHg 39%
    23:00 +21°C° 0 mm 2 m/S 680 mmHg 42%

    Morgen, 18 August, Samstag

    Zeit Temperatur Niederschläge Wind Luftdruck Luftfeuchtigkeit
    00:00 +21°C° 0 mm 2 m/S 680 mmHg 45%
    01:00 +20°C° 0 mm 2 m/S 680 mmHg 48%
    02:00 +21°C° 0 mm 1 m/S 679 mmHg 50%
    03:00 +20°C° 0 mm 1 m/S 679 mmHg 52%
    04:00 +20°C° 0 mm 1 m/S 679 mmHg 54%
    05:00 +19°C° 0 mm 1 m/S 679 mmHg 56%
    06:00 +20°C° 0 mm 2 m/S 680 mmHg 51%
    07:00 +23°C° 0 mm 2 m/S 680 mmHg 45%
    08:00 +24°C° 0 mm 3 m/S 681 mmHg 40%
    09:00 +27°C° 0 mm 3 m/S 682 mmHg 34%
    10:00 +29°C° 0 mm 3 m/S 682 mmHg 28%
    11:00 +31°C° 0 mm 3 m/S 683 mmHg 22%
    12:00 +33°C° 0 mm 3 m/S 682 mmHg 20%
    13:00 +34°C° 0 mm 4 m/S 681 mmHg 19%
    14:00 +34°C° 0 mm 4 m/S 681 mmHg 18%
    15:00 +33°C° 0 mm 4 m/S 680 mmHg 18%
    16:00 +33°C° 0 mm 4 m/S 680 mmHg 19%
    17:00 +32°C° 0 mm 4 m/S 680 mmHg 19%
    18:00 +29°C° 0 mm 4 m/S 680 mmHg 22%
    19:00 +27°C° 0 mm 3 m/S 680 mmHg 24%
    20:00 +25°C° 0 mm 3 m/S 680 mmHg 27%
    21:00 +25°C° 0 mm 3 m/S 680 mmHg 30%
    22:00 +24°C° 0 mm 2 m/S 681 mmHg 32%
    23:00 +23°C° 0 mm 2 m/S 681 mmHg 35%

    übermorgen, 19 August, Sonntag

    Zeit Temperatur Niederschläge Wind Luftdruck Luftfeuchtigkeit
    00:00 +21°C° 0 mm 2 m/S 680 mmHg 37%
    01:00 +21°C° 0 mm 2 m/S 680 mmHg 39%
    02:00 +20°C° 0 mm 2 m/S 680 mmHg 41%
    03:00 +20°C° 0 mm 2 m/S 680 mmHg 43%
    04:00 +19°C° 0 mm 2 m/S 680 mmHg 45%
    05:00 +18°C° 0 mm 2 m/S 680 mmHg 47%
    06:00 +20°C° 0 mm 3 m/S 680 mmHg 44%
    07:00 +21°C° 0 mm 3 m/S 681 mmHg 41%
    08:00 +22°C° 0 mm 4 m/S 682 mmHg 38%
    09:00 +25°C° 0 mm 4 m/S 682 mmHg 34%
    10:00 +27°C° 0 mm 4 m/S 683 mmHg 31%
    11:00 +29°C° 0 mm 4 m/S 683 mmHg 27%
    12:00 +30°C° 0 mm 4 m/S 682 mmHg 26%
    13:00 +32°C° 0 mm 4 m/S 681 mmHg 24%
    14:00 +32°C° 0 mm 4 m/S 681 mmHg 23%
    15:00 +32°C° 0 mm 4 m/S 680 mmHg 24%
    16:00 +30°C° 0 mm 4 m/S 680 mmHg 24%
    17:00 +29°C° 0 mm 4 m/S 680 mmHg 25%
    18:00 +28°C° 0 mm 3 m/S 680 mmHg 28%
    19:00 +26°C° 0 mm 3 m/S 680 mmHg 32%
    20:00 +24°C° 0 mm 2 m/S 680 mmHg 36%
    21:00 +23°C° 0 mm 2 m/S 680 mmHg 38%
    22:00 +21°C° 0 mm 2 m/S 680 mmHg 40%
    23:00 +21°C° 0 mm 1 m/S 680 mmHg 41%

    20 August, Montag

    Zeit Temperatur Niederschläge Wind Luftdruck Luftfeuchtigkeit
    00:00 +21°C° 0 mm 1 m/S 680 mmHg 42%
    01:00 +20°C° 0 mm 1 m/S 679 mmHg 43%
    02:00 +19°C° 0 mm 2 m/S 679 mmHg 43%
    03:00 +19°C° 0 mm 2 m/S 679 mmHg 45%
    04:00 +18°C° 0 mm 2 m/S 679 mmHg 46%
    05:00 +18°C° 0 mm 2 m/S 679 mmHg 48%
    06:00 +19°C° 0 mm 3 m/S 680 mmHg 47%
    07:00 +21°C° 0 mm 3 m/S 681 mmHg 46%
    08:00 +22°C° 0 mm 4 m/S 682 mmHg 45%
    09:00 +25°C° 0 mm 4 m/S 682 mmHg 39%
    10:00 +27°C° 0 mm 4 m/S 682 mmHg 34%
    11:00 +30°C° 0 mm 4 m/S 682 mmHg 28%
    12:00 +30°C° 0 mm 3 m/S 681 mmHg 26%
    13:00 +31°C° 0 mm 3 m/S 680 mmHg 24%
    14:00 +33°C° 0 mm 3 m/S 680 mmHg 21%
    15:00 +31°C° 0 mm 3 m/S 679 mmHg 23%
    16:00 +32°C° 0 mm 4 m/S 679 mmHg 24%
    17:00 +30°C° 0 mm 4 m/S 679 mmHg 25%
    18:00 +28°C° 0 mm 4 m/S 679 mmHg 29%
    19:00 +27°C° 0 mm 4 m/S 680 mmHg 33%
    20:00 +25°C° 0 mm 4 m/S 680 mmHg 37%
    21:00 +24°C° 0 mm 3 m/S 680 mmHg 40%
    22:00 +22°C° 0 mm 3 m/S 680 mmHg 43%
    23:00 +22°C° 0 mm 3 m/S 680 mmHg 46%

    21 August, Dienstag

    Zeit Temperatur Niederschläge Wind Luftdruck Luftfeuchtigkeit
    00:00 +21°C° 0 mm 2 m/S 679 mmHg 49%
    01:00 +21°C° 0 mm 2 m/S 679 mmHg 51%
    02:00 +20°C° 0 mm 2 m/S 679 mmHg 53%
    03:00 +19°C° 0 mm 2 m/S 679 mmHg 55%
    04:00 +19°C° 0 mm 2 m/S 679 mmHg 57%
    05:00 +18°C° 0 mm 2 m/S 679 mmHg 59%
    06:00 +20°C° 0 mm 2 m/S 680 mmHg 54%
    07:00 +21°C° 0 mm 3 m/S 680 mmHg 49%
    08:00 +23°C° 0 mm 4 m/S 681 mmHg 44%
    09:00 +26°C° 0 mm 4 m/S 681 mmHg 38%
    10:00 +28°C° 0 mm 4 m/S 681 mmHg 31%
    11:00 +30°C° 0 mm 4 m/S 681 mmHg 24%
    12:00 +32°C° 0 mm 4 m/S 681 mmHg 23%
    13:00 +33°C° 0 mm 4 m/S 680 mmHg 21%
    14:00 +34°C° 0 mm 3 m/S 679 mmHg 19%
    15:00 +33°C° 0 mm 4 m/S 679 mmHg 20%
    16:00 +32°C° 0 mm 4 m/S 679 mmHg 22%
    17:00 +30°C° 0 mm 4 m/S 678 mmHg 23%
    18:00 +29°C° 0 mm 4 m/S 679 mmHg 27%
    19:00 +27°C° 0 mm 4 m/S 679 mmHg 30%
    20:00 +25°C° 0 mm 4 m/S 679 mmHg 34%
    21:00 +25°C° 0 mm 3 m/S 679 mmHg 37%
    22:00 +24°C° 0 mm 3 m/S 679 mmHg 41%
    23:00 +22°C° 0 mm 3 m/S 679 mmHg 44%

    22 August, Mittwoch

    Zeit Temperatur Niederschläge Wind Luftdruck Luftfeuchtigkeit
    00:00 +22°C° 0 mm 3 m/S 678 mmHg 47%
    01:00 +21°C° 0 mm 3 m/S 678 mmHg 49%
    02:00 +21°C° 0 mm 2 m/S 678 mmHg 52%
    03:00 +20°C° 0 mm 2 m/S 678 mmHg 54%
    04:00 +20°C° 0 mm 2 m/S 678 mmHg 56%
    05:00 +19°C° 0 mm 2 m/S 678 mmHg 58%
    06:00 +21°C° 0 mm 3 m/S 679 mmHg 54%
    07:00 +22°C° 0 mm 4 m/S 679 mmHg 49%
    08:00 +25°C° 0 mm 4 m/S 680 mmHg 44%
    09:00 +27°C° 0 mm 4 m/S 680 mmHg 38%
    10:00 +29°C° 0 mm 4 m/S 680 mmHg 32%
    11:00 +31°C° 0 mm 3 m/S 681 mmHg 26%
    12:00 +34°C° 0 mm 3 m/S 680 mmHg 23%
    13:00 +35°C° 0 mm 2 m/S 679 mmHg 21%
    14:00 +36°C° 0 mm 2 m/S 679 mmHg 18%
    15:00 +35°C° 0 mm 2 m/S 679 mmHg 19%
    16:00 +34°C° 0 mm 2 m/S 678 mmHg 20%
    17:00 +34°C° 0 mm 2 m/S 678 mmHg 20%
    18:00 +31°C° 0 mm 3 m/S 678 mmHg 25%
    19:00 +29°C° 0 mm 3 m/S 678 mmHg 30%
    20:00 +27°C° 0 mm 4 m/S 679 mmHg 35%
    21:00 +26°C° 0 mm 3 m/S 679 mmHg 38%
    22:00 +25°C° 0 mm 3 m/S 679 mmHg 40%
    23:00 +24°C° 0 mm 2 m/S 679 mmHg 42%
    Mehr zeigen